Flag for U.S.A. Weather past 2 weeks in Duluth, Minnesota, U.S.A.

Now
55 °F

Clear.


Feels Like: 53 °F
Forecast: 45 / 63 °F
Wind: 9 mph from Southwest

Location: Sky Harbor Airport

Current Time: Sep 16, 2014 at 10:39:34 PM

Latest Report: Sep 16, 2014 at 9:53 PM


Visibility: 10 mi

Pressure: 29.99 "Hg

Humidity: 77%

Dew point: 48 °F

Location of DuluthLocation

Historic Weather in Duluth — Graph

°F

Duluth temperature yesterday

Maximum temperature yesterday: 61 °F (at 3:53 PM)
Minimum temperature yesterday: 43 °F (at 4:53 AM)
Average temperature yesterday: 52 °F

Past Weeks' High & Low Weather Summary

 TemperatureHumidityPressure
High79 °F (Sep 7, 2:13 PM)100% (Sep 10, 6:53 AM)30.44 "Hg (Sep 10, 6:53 AM)
Low37 °F (Sep 13, 6:34 AM)38% (Sep 16, 1:54 PM)29.66 "Hg (Sep 4, 9:14 AM)
Average59 °F73%30.02 "Hg
* Reported Sep 1 9:13 PM — Sep 16 9:33 PM, Duluth, Weather by CustomWeather, © 2014

Note: Actual official high and low records may vary slightly from our data, if they occured in-between our weather recording intervals... More about our weather records

Advertising

Duluth weather history for previous 24 hours

 ConditionsComfort  
Time TempWeatherWind HumidityBarometerVisibility
9:33 PM
Sep 16
57 °FClear.10 mph72%29.99 "Hg10 mi
9:14 PM57 °FClear.9 mph72%29.99 "Hg10 mi
8:53 PM57 °FClear.9 mph72%29.99 "Hg10 mi
8:33 PM59 °FClear.9 mph68%29.99 "Hg10 mi
8:14 PM61 °FSunny.9 mph63%29.99 "Hg10 mi
7:53 PM61 °FScattered clouds.9 mph63%29.99 "Hg10 mi
7:34 PM63 °FPartly sunny.9 mph59%29.98 "Hg10 mi
7:13 PM64 °FSunny.9 mph52%29.98 "Hg10 mi
6:53 PM64 °FSunny.10 mph52%29.98 "Hg10 mi
6:34 PM66 °FSunny.10 mph49%29.98 "Hg10 mi
6:13 PM66 °FSunny.10 mph46%29.99 "Hg10 mi
5:54 PM68 °FSunny.12 mph43%29.99 "Hg10 mi
5:33 PM70 °FSunny.13 mph40%29.99 "Hg10 mi
5:13 PM70 °FSunny.13 mph40%29.99 "Hg10 mi
4:54 PM70 °FSunny.14 mph40%29.99 "Hg10 mi
4:33 PM70 °FSunny.13 mph40%29.99 "Hg10 mi
4:13 PM70 °FSunny.16 mph38%30.00 "Hg10 mi
3:53 PM70 °FSunny.17 mph38%30.00 "Hg10 mi
3:33 PM70 °FSunny.16 mph38%30.00 "Hg10 mi
3:14 PM70 °FSunny.15 mph38%30.01 "Hg10 mi
2:53 PM70 °FSunny.18 mph38%30.01 "Hg10 mi
2:34 PM70 °FSunny.18 mph38%30.01 "Hg10 mi
2:13 PM70 °FSunny.17 mph38%30.01 "Hg10 mi
1:54 PM70 °FSunny.15 mph38%30.02 "Hg10 mi
1:33 PM68 °FSunny.20 mph40%30.02 "Hg10 mi
12:53 PM68 °FSunny.16 mph40%30.04 "Hg10 mi
12:33 PM66 °FSunny.17 mph43%30.04 "Hg10 mi
12:13 PM66 °FSunny.15 mph43%30.04 "Hg10 mi
11:53 AM64 °FSunny.15 mph46%30.05 "Hg10 mi
11:33 AM64 °FSunny.15 mph46%30.05 "Hg10 mi
11:14 AM63 °FSunny.14 mph52%30.05 "Hg10 mi
10:53 AM61 °FSunny.14 mph55%30.06 "Hg10 mi
10:33 AM59 °FSunny.12 mph59%30.07 "Hg10 mi
10:14 AM57 °FSunny.13 mph63%30.07 "Hg10 mi
9:53 AM55 °FSunny.12 mph67%30.08 "Hg10 mi
9:34 AM54 °FSunny.14 mph67%30.08 "Hg10 mi
9:13 AM52 °FSunny.13 mph72%30.08 "Hg10 mi
8:53 AM50 °FSunny.15 mph76%30.08 "Hg10 mi
8:33 AM48 °FSunny.17 mph82%30.08 "Hg10 mi
8:13 AM46 °FSunny.16 mph82%30.09 "Hg10 mi
7:54 AM46 °FSunny.16 mph82%30.10 "Hg10 mi
7:33 AM45 °FClear.15 mph81%30.10 "Hg10 mi
6:33 AM45 °FClear.14 mph81%30.10 "Hg10 mi
6:13 AM45 °FClear.14 mph81%30.10 "Hg10 mi
5:54 AM45 °FClear.13 mph81%30.11 "Hg10 mi
5:34 AM45 °FClear.15 mph81%30.11 "Hg10 mi
5:13 AM45 °FClear.15 mph81%30.11 "Hg10 mi
4:54 AM45 °FClear.14 mph81%30.11 "Hg10 mi
4:34 AM45 °FClear.15 mph81%30.11 "Hg10 mi
4:13 AM45 °FClear.14 mph81%30.12 "Hg10 mi
3:54 AM45 °FClear.14 mph81%30.12 "Hg10 mi
3:34 AM46 °FClear.14 mph76%30.12 "Hg10 mi
3:13 AM46 °FClear.15 mph76%30.13 "Hg10 mi
2:53 AM46 °FClear.14 mph76%30.13 "Hg10 mi
2:33 AM46 °FClear.14 mph76%30.13 "Hg10 mi
2:14 AM46 °FClear.14 mph76%30.13 "Hg10 mi
1:53 AM46 °FClear.12 mph76%30.14 "Hg10 mi
1:33 AM45 °FClear.9 mph81%30.14 "Hg10 mi
1:14 AM45 °FClear.9 mph81%30.14 "Hg10 mi
12:53 AM45 °FClear.10 mph81%30.14 "Hg10 mi
12:34 AM46 °FClear.10 mph82%30.15 "Hg10 mi
12:13 AM46 °FClear.10 mph82%30.15 "Hg10 mi
11:53 PM
Sep 15
46 °FClear.9 mph82%30.15 "Hg10 mi
11:34 PM46 °FClear.9 mph82%30.16 "Hg10 mi
11:13 PM46 °FClear.9 mph82%30.16 "Hg10 mi
10:53 PM46 °FClear.9 mph82%30.16 "Hg10 mi
10:34 PM46 °FClear.9 mph87%30.16 "Hg10 mi
Weather by CustomWeather, © 2014

See weather overviewHow to use our weather pages